Terminal Aerodrome Forecast
Issued by NWS Cleveland, OH

Home | Current Version | Previous Version | Text Only | Print | Product List | Glossary Off
Versions: 1 2 3 4 5 6 7 8 9 10 11 12 13 14

000
FTUS41 KCLE 151724
TAFERI
TAF
KERI 151724Z 1518/1618 28008KT P6SM FEW050 BKN120
     FM160100 VRB03KT P6SM SCT250
     FM161600 03007KT P6SM SCT040=

USA.gov is the U.S. government's official web portal to all federal, state and local government web resources and services.